Location: Truman State University Observatory
(40.1787°N, 92.6006°W)
Time: 16:13:41
(UTC-06:00)

Amateur Radio Satellites - All Passes

Search period start: 24 November 2017 15:43
Search period end: 25 November 2017 15:43
Location: Truman State University Observatory, 40.1787°N, 92.6006°W

Satellite Date Start Highest point End Downlink Frequencies (MHz)
Time Altitude Azimuth
ITAMSAT 1 24 Nov 15:51:40 15:56:23 34° 263° (W) 16:01:08 435.822/435.867
CUTE-I 24 Nov 16:13:41 16:16:35 15° 60° (ENE) 16:19:30 437.470
MOZHAYETS 4 24 Nov 16:16:14 16:20:15 31° 291° (WNW) 16:24:15
BEESAT 24 Nov 16:27:41 16:31:58 34° 291° (WNW) 16:36:14 436.000
DOVE 4 24 Nov 16:33:23 16:38:28 78° 259° (WSW) 16:43:46 437.250
CUBESAT XI-V 24 Nov 16:37:24 16:42:07 80° 282° (WNW) 16:46:48 437.345
ITUPSAT 1 24 Nov 16:40:16 16:44:15 27° 293° (WNW) 16:48:13 437.325
HO-68 24 Nov 16:42:29 16:47:09 19° 55° (NE) 16:51:48 435.675
XW-2D 24 Nov 16:44:20 16:47:20 24° 70° (ENE) 16:50:23 145.860 - 145.880
AO-7 24 Nov 16:50:01 16:54:20 15° 271° (W) 16:58:41 .
YUBILEINY 24 Nov 16:56:23 17:05:12 73° 267° (W) 17:13:57 435.215
NUDT-PHONESAT 24 Nov 16:57:18 17:00:08 22° 69° (ENE) 17:02:59 437.300
XW-2B 24 Nov 16:58:53 17:02:15 33° 72° (ENE) 17:05:39 145.730 - 145.750
RS-15 24 Nov 17:19:26 17:30:50 47° 109° (ESE) 17:42:13 29.354- 29.394
CUTE 1.7 + AOD 2 24 Nov 17:21:01 17:23:35 16° 66° (ENE) 17:26:12 437.475
CUBEBUG 2 24 Nov 17:23:15 17:24:23 11° 63° (ENE) 17:25:29 437.445
XW-2C 24 Nov 17:24:21 17:28:03 75° 77° (ENE) 17:31:48 145.795 - 145.815
LilacSat-2 24 Nov 17:31:14 17:34:59 81° 257° (WSW) 17:38:46 437.200
XW-2F 24 Nov 17:31:19 17:35:02 86° 75° (ENE) 17:38:46 145.980 - 146.000
KKS-1 24 Nov 17:39:30 17:43:58 80° 285° (WNW) 17:48:24 437.445
SEEDS 24 Nov 17:43:35 17:46:19 17° 66° (ENE) 17:49:04 437.485
CUTE-I 24 Nov 17:50:36 17:55:57 76° 257° (WSW) 18:01:22 437.470
KAITUO 1B 24 Nov 17:52:24 17:56:03 65° 259° (W) 17:59:44 145.475/437.950
STARS 24 Nov 17:52:33 17:56:52 54° 101° (E) 18:01:07 437.465
UWE-3 24 Nov 18:09:37 18:12:41 19° 67° (ENE) 18:15:43 435.000/436.395/437.385
XW-2D 24 Nov 18:18:33 18:21:26 21° 265° (W) 18:24:20 145.860 - 145.880
nSIGHT-1 24 Nov 18:19:51 18:21:51 15° 131° (SE) 18:23:51 .
HO-68 24 Nov 18:26:44 18:33:56 88° 254° (WSW) 18:41:12 435.675
NUDT-PHONESAT 24 Nov 18:31:00 18:33:52 22° 265° (W) 18:36:46 437.300
XW-2B 24 Nov 18:34:22 18:36:32 15° 268° (W) 18:38:42 145.730 - 145.750
AO-73 24 Nov 18:39:43 18:42:35 18° 67° (ENE) 18:45:25 145.935
XW-2A 24 Nov 18:50:43 18:53:51 41° 74° (ENE) 18:57:01 145.665 - 145.685
Oscar 11 24 Nov 18:51:45 18:54:29 17° 66° (ENE) 18:57:13 .
CUTE 1.7 + AOD 2 24 Nov 18:55:05 18:59:03 42° 262° (W) 19:03:05 437.475
CUBEBUG 2 24 Nov 18:55:50 19:00:24 75° 257° (WSW) 19:04:50 437.445
NO-84 24 Nov 18:56:33 18:58:54 14° 18° (NNE) 19:01:17 435.350 FM
YUBILEINY 24 Nov 18:57:03 19:00:17 12° 286° (WNW) 19:03:31 435.215
STRAND 1 24 Nov 19:06:59 19:11:39 35° 97° (E) 19:16:17 437.568
AAUSAT CUBESAT 2 24 Nov 19:11:57 19:16:02 74° 77° (ENE) 19:20:12 437.432
ISS 24 Nov 19:15:28 19:18:37 46° 137° (SE) 19:21:47 437.550
SEEDS 24 Nov 19:17:47 19:21:40 38° 262° (W) 19:25:36 437.485
ZACube-1 24 Nov 19:25:42 19:29:58 67° 75° (ENE) 19:34:09 437.345
STARS 24 Nov 19:30:25 19:32:44 14° 297° (WNW) 19:35:01 437.465
RS-15 24 Nov 19:31:05 19:43:09 57° 311° (NW) 19:55:10 29.354- 29.394
SO-50 24 Nov 19:31:14 19:32:31 11° 107° (ESE) 19:33:49 436.795
UWE-3 24 Nov 19:44:46 19:48:53 38° 262° (W) 19:52:55 435.000/436.395/437.385
nSIGHT-1 24 Nov 19:54:37 19:57:46 53° 326° (NNW) 20:00:56 .
FO-29 24 Nov 20:13:11 20:20:37 46° 96° (E) 20:27:28 435.910
AO-73 24 Nov 20:14:34 20:18:32 37° 262° (W) 20:22:28 145.935
HO-68 24 Nov 20:18:53 20:22:33 14° 271° (W) 20:26:14 435.675
Oscar 11 24 Nov 20:26:11 20:30:15 42° 262° (W) 20:34:22 .
NO-84 24 Nov 20:33:00 20:37:05 47° 37° (NE) 20:41:13 435.350 FM
DELFI C3 24 Nov 20:39:56 20:43:46 51° 74° (ENE) 20:47:39 145.870
EO-88 24 Nov 20:44:20 20:47:21 25° 71° (ENE) 20:50:22 145.990 - 145.960
STRAND 1 24 Nov 20:46:25 20:50:40 27° 294° (WNW) 20:54:53 437.568
ISS 24 Nov 20:52:28 20:55:14 24° 335° (NNW) 20:57:59 437.550
Max Valier Satellite 24 Nov 20:54:59 20:58:30 51° 75° (ENE) 21:02:04 145.860
SO-50 24 Nov 21:07:53 21:12:19 73° 303° (WNW) 21:16:50 436.795
O/OREOS (USA 219) 24 Nov 21:17:54 21:20:31 15° 54° (NE) 21:23:06 437.305
nSIGHT-1 24 Nov 21:32:42 21:34:34 14° 345° (NNW) 21:36:25 .
UNISAT 6 24 Nov 21:33:10 21:37:08 37° 98° (E) 21:41:04 437.425
TIGRISAT 24 Nov 21:36:22 21:40:19 36° 98° (E) 21:44:13 435.000
RS-15 24 Nov 21:49:48 21:59:11 24° 341° (NNW) 22:08:25 29.354- 29.394
FO-29 24 Nov 21:58:23 22:05:22 38° 296° (WNW) 22:11:58 435.910
NO-84 24 Nov 22:10:46 22:14:16 25° 234° (SW) 22:17:44 435.350 FM
ESTCUBE 1 24 Nov 22:15:41 22:19:43 35° 70° (ENE) 22:23:48 437.505/2401.250
DELFI C3 24 Nov 22:17:33 22:18:48 11° 270° (W) 22:20:03 145.870
EO-88 24 Nov 22:18:23 22:20:57 18° 266° (W) 22:23:32 145.990 - 145.960
LO-87 24 Nov 22:28:08 22:31:42 63° 75° (ENE) 22:35:16 145.935 - 145.965
ISS 24 Nov 22:31:23 22:32:35 12° 355° (N) 22:33:49 437.550
SPROUT 24 Nov 22:44:31 22:47:15 17° 66° (ENE) 22:50:00 437.525
AIST 2D 24 Nov 22:46:57 22:49:52 24° 96° (E) 22:52:46 435.315
PRISM 24 Nov 22:51:55 22:56:06 85° 287° (WNW) 23:00:14 437.425
PCSat 24 Nov 22:51:59 22:56:59 39° 111° (ESE) 23:02:01 145.827
SO-50 24 Nov 22:52:05 22:53:36 11° 323° (NW) 22:55:07 436.795
O/OREOS (USA 219) 24 Nov 22:55:51 23:00:20 59° 252° (WSW) 23:04:45 437.305
UNISAT 6 24 Nov 23:10:37 23:13:33 18° 294° (WNW) 23:16:29 437.425
nSIGHT-1 24 Nov 23:10:47 23:11:52 11° 6° (N) 23:12:57 .
TIGRISAT 24 Nov 23:13:47 23:16:43 19° 294° (WNW) 23:19:40 435.000
DUCHIFAT 1 24 Nov 23:29:23 23:32:24 19° 94° (E) 23:35:25 145.980
EO-79 24 Nov 23:41:24 23:45:16 35° 98° (E) 23:49:05 145.935-145.965
NANOSAT C BR1 24 Nov 23:41:51 23:45:35 31° 97° (E) 23:49:18 145.865
ESTCUBE 1 24 Nov 23:53:11 23:56:35 21° 266° (W) 00:00:00 437.505/2401.250
VELOX 1 24 Nov 23:53:36 23:57:58 62° 74° (ENE) 00:02:23 145.980
POLYITAN 1 24 Nov 23:57:43 00:01:50 55° 100° (E) 00:05:56 437.675
BUGSAT 1 25 Nov 00:06:54 00:07:57 11° 91° (E) 00:08:59 437.445
ISS 25 Nov 00:08:07 00:10:09 15° 16° (NNE) 00:12:11 437.550
RS-15 25 Nov 00:08:29 00:17:38 24° 18° (NNE) 00:26:27 29.354- 29.394
SPROUT 25 Nov 00:18:44 00:22:47 42° 261° (W) 00:26:52 437.525
AIST 2D 25 Nov 00:20:20 00:22:52 19° 291° (WNW) 00:25:25 435.315
QB50P2 25 Nov 00:21:23 00:25:34 69° 284° (WNW) 00:29:43 145.880/145.840
Oscar 19 25 Nov 00:25:44 00:27:47 12° 90° (E) 00:29:51 437.125/150
DX 1 25 Nov 00:26:11 00:30:02 31° 69° (ENE) 00:33:54 434.975-435.025
50 SAT 25 Nov 00:34:28 00:37:26 34° 73° (ENE) 00:40:25 437.505
PCSat 25 Nov 00:35:42 00:40:26 30° 309° (NW) 00:45:12 145.827
nSIGHT-1 25 Nov 00:46:14 00:48:58 25° 26° (NNE) 00:51:40 .
BEESAT 3 25 Nov 00:57:12 01:00:29 25° 113° (ESE) 01:03:47 437.485
UKube-1 25 Nov 00:58:53 01:02:58 43° 72° (ENE) 01:07:05 .
DUCHIFAT 1 25 Nov 01:04:24 01:08:07 32° 289° (WNW) 01:11:49 145.980
EO-79 25 Nov 01:17:48 01:20:45 19° 293° (WNW) 01:23:41 145.935-145.965
NANOSAT C BR1 25 Nov 01:17:57 01:21:05 21° 293° (WNW) 01:24:12 145.865
Gurwin Techsat 1B 25 Nov 01:22:46 01:27:33 33° 97° (E) 01:32:17 435.225
AO-91 25 Nov 01:31:00 01:35:17 51° 99° (E) 01:39:06 145.960
VELOX 1 25 Nov 01:33:12 01:34:48 12° 270° (W) 01:36:23 145.980
POLYITAN 1 25 Nov 01:35:14 01:37:08 13° 296° (WNW) 01:39:02 437.675
BUGSAT 1 25 Nov 01:39:42 01:43:37 53° 287° (WNW) 01:47:30 437.445
MOZHAYETS 4 25 Nov 01:40:51 01:44:24 23° 67° (ENE) 01:47:57
ISS 25 Nov 01:43:56 01:47:10 59° 35° (NE) 01:50:23 437.550
BEESAT 25 Nov 01:56:05 02:00:04 27° 67° (ENE) 02:04:02 436.000
Oscar 19 25 Nov 02:02:28 02:07:38 75° 285° (WNW) 02:12:47 437.125/150
DX 1 25 Nov 02:02:45 02:06:12 23° 265° (W) 02:09:41 434.975-435.025
ITUPSAT 1 25 Nov 02:08:22 02:12:39 34° 69° (ENE) 02:16:58 437.325
50 SAT 25 Nov 02:09:10 02:09:38 10° 268° (W) 02:10:07 437.505
BEESAT 2 25 Nov 02:18:20 02:22:14 55° 118° (ESE) 02:26:12 435.950
M-CUBED/EXP-1 PRIME 25 Nov 02:21:04 02:24:41 22° 99° (E) 02:28:18 437.505
RS-15 25 Nov 02:21:57 02:33:39 56° 48° (NE) 02:44:40 29.354- 29.394
nSIGHT-1 25 Nov 02:22:15 02:25:18 42° 222° (SW) 02:28:19 .
AO-85 25 Nov 02:25:27 02:28:22 21° 111° (ESE) 02:31:22 145.980
BEESAT 3 25 Nov 02:34:25 02:37:54 28° 310° (NW) 02:41:25 437.485
UKube-1 25 Nov 02:36:32 02:39:11 16° 267° (W) 02:41:50 .
AO-7 25 Nov 02:54:48 03:02:16 35° 98° (E) 03:09:42 .
Gurwin Techsat 1B 25 Nov 03:02:46 03:07:24 31° 293° (WNW) 03:12:00 435.225
AO-91 25 Nov 03:09:01 03:11:08 13° 299° (WNW) 03:13:10 145.960
MOZHAYETS 4 25 Nov 03:17:13 03:21:20 34° 263° (W) 03:25:29
ISS 25 Nov 03:21:28 03:23:17 14° 230° (SW) 03:25:06 437.550
BEESAT 25 Nov 03:33:28 03:37:41 31° 263° (W) 03:41:56 436.000
CUBESAT XI-V 25 Nov 03:39:42 03:44:18 88° 259° (WSW) 03:48:57 437.345
ITUPSAT 1 25 Nov 03:46:39 03:50:31 24° 265° (W) 03:54:23 437.325
M-CUBED/EXP-1 PRIME 25 Nov 03:54:49 03:59:05 39° 294° (WNW) 04:03:23 437.505
BEESAT 2 25 Nov 03:57:43 04:00:18 16° 316° (NW) 04:02:53 435.950
SO-50 25 Nov 04:00:37 04:02:52 13° 39° (NE) 04:05:09 436.795
YUBILEINY 25 Nov 04:01:39 04:08:38 28° 82° (E) 04:15:38 435.215
ITAMSAT 1 25 Nov 04:04:23 04:09:37 87° 103° (ESE) 04:14:48 435.822/435.867
AO-85 25 Nov 04:05:01 04:08:31 31° 310° (NW) 04:12:12 145.980
DOVE 4 25 Nov 04:33:31 04:38:03 32° 95° (E) 04:42:20 437.250
RS-15 25 Nov 04:35:01 04:45:46 45° 252° (WSW) 04:56:02 29.354- 29.394
KKS-1 25 Nov 04:36:25 04:40:54 86° 78° (ENE) 04:45:25 437.445
AO-7 25 Nov 04:47:13 04:55:13 53° 296° (WNW) 05:03:13 .
STARS 25 Nov 04:48:11 04:52:23 45° 72° (ENE) 04:56:37 437.465
LilacSat-2 25 Nov 05:06:56 05:08:07 11° 91° (E) 05:09:19 437.200
KAITUO 1B 25 Nov 05:25:26 05:27:01 12° 92° (E) 05:28:36 145.475/437.950
SO-50 25 Nov 05:39:22 05:44:03 83° 59° (ENE) 05:48:46 436.795
ITAMSAT 1 25 Nov 05:46:18 05:48:18 12° 301° (WNW) 05:50:17 435.822/435.867
XW-2D 25 Nov 05:50:23 05:53:57 37° 98° (E) 05:57:31 145.860 - 145.880
YUBILEINY 25 Nov 05:56:05 06:04:44 62° 282° (WNW) 06:13:29 435.215
HO-68 25 Nov 05:56:47 06:01:25 18° 91° (E) 06:06:02 435.675
NUDT-PHONESAT 25 Nov 06:00:36 06:03:57 31° 97° (E) 06:07:18 437.300
XW-2B 25 Nov 06:05:14 06:09:00 55° 100° (E) 06:12:46 145.730 - 145.750
CUTE-I 25 Nov 06:08:19 06:13:28 45° 99° (E) 06:18:33 437.470
DOVE 4 25 Nov 06:11:15 06:15:35 28° 293° (WNW) 06:19:42 437.250
STRAND 1 25 Nov 06:22:04 06:26:59 48° 71° (ENE) 06:31:56 437.568
FO-29 25 Nov 06:25:29 06:30:27 21° 57° (ENE) 06:35:42 435.910
STARS 25 Nov 06:26:11 06:28:55 16° 267° (W) 06:31:41 437.465
XW-2C 25 Nov 06:31:07 06:34:55 66° 284° (WNW) 06:38:42 145.795 - 145.815
XW-2F 25 Nov 06:37:33 06:41:18 58° 285° (WNW) 06:45:03 145.980 - 146.000
LilacSat-2 25 Nov 06:38:56 06:42:38 48° 286° (WNW) 06:46:22 437.200
CUTE 1.7 + AOD 2 25 Nov 06:40:14 06:44:05 32° 96° (E) 06:47:56 437.475
AO-7 25 Nov 06:43:30 06:46:03 12° 317° (NW) 06:48:37 .
CUBEBUG 2 25 Nov 06:47:48 06:51:00 21° 94° (E) 06:54:12 437.445
AAUSAT CUBESAT 2 25 Nov 06:56:22 06:58:00 12° 90° (E) 06:59:38 437.432
KAITUO 1B 25 Nov 06:57:36 07:01:11 42° 286° (WNW) 07:04:46 145.475/437.950
SEEDS 25 Nov 07:01:44 07:05:37 34° 97° (E) 07:09:29 437.485
ZACube-1 25 Nov 07:16:03 07:17:54 13° 91° (E) 07:19:44 437.345
SO-50 25 Nov 07:22:53 07:23:50 11° 253° (WSW) 07:24:46 436.795
XW-2D 25 Nov 07:25:34 07:27:48 15° 293° (WNW) 07:30:01 145.860 - 145.880
UWE-3 25 Nov 07:34:25 07:38:20 40° 98° (E) 07:42:16 435.000/436.395/437.385
NUDT-PHONESAT 25 Nov 07:35:09 07:37:31 16° 292° (WNW) 07:39:54 437.300
PCSat 25 Nov 07:40:16 07:45:01 30° 51° (NE) 07:49:44 145.827
XW-2B 25 Nov 07:41:46 07:42:41 11° 295° (WNW) 07:43:34 145.730 - 145.750
HO-68 25 Nov 07:42:39 07:49:51 79° 288° (WNW) 07:56:59 435.675
XW-2A 25 Nov 07:44:52 07:48:08 48° 100° (E) 07:51:25 145.665 - 145.685
CUTE-I 25 Nov 07:49:02 07:53:11 23° 296° (WNW) 07:57:18 437.470
FALCONSAT 3 25 Nov 07:50:05 07:52:57 21° 161° (SSE) 07:55:49 435.103
YUBILEINY 25 Nov 08:00:59 08:03:37 11° 304° (NW) 08:06:15 435.215
AO-73 25 Nov 08:02:28 08:06:21 38° 98° (E) 08:10:17 145.935
STRAND 1 25 Nov 08:02:42 08:06:23 20° 267° (W) 08:10:05 437.568
FO-29 25 Nov 08:07:39 08:14:26 81° 257° (WSW) 08:22:04 435.910
Oscar 11 25 Nov 08:13:42 08:17:40 34° 97° (E) 08:21:37 .
CUTE 1.7 + AOD 2 25 Nov 08:16:28 08:19:43 21° 292° (WNW) 08:22:57 437.475
CUBEBUG 2 25 Nov 08:24:04 08:27:37 28° 290° (WNW) 08:31:11 437.445
AAUSAT CUBESAT 2 25 Nov 08:29:40 08:33:46 53° 286° (WNW) 08:37:49 437.432
UNISAT 6 25 Nov 08:31:10 08:35:10 32° 70° (ENE) 08:39:06 437.425
TIGRISAT 25 Nov 08:34:14 08:38:13 31° 70° (ENE) 08:42:07 435.000
SEEDS 25 Nov 08:37:56 08:41:03 20° 293° (WNW) 08:44:10 437.485
ZACube-1 25 Nov 08:50:25 08:54:26 50° 286° (WNW) 08:58:30 437.345
UWE-3 25 Nov 09:11:55 09:14:29 16° 294° (WNW) 09:17:02 435.000/436.395/437.385
BEESAT 3 25 Nov 09:14:30 09:16:50 15° 44° (NE) 09:19:08 437.485
PCSat 25 Nov 09:23:27 09:28:29 40° 249° (WSW) 09:33:28 145.827
FALCONSAT 3 25 Nov 09:28:10 09:31:36 38° 176° (S) 09:35:03 435.103
HO-68 25 Nov 09:32:32 09:36:26 16° 307° (NW) 09:40:19 435.675
AO-73 25 Nov 09:39:34 09:42:18 17° 293° (WNW) 09:45:03 145.935
PRISM 25 Nov 09:39:59 09:44:03 60° 74° (ENE) 09:48:10 437.425
EO-88 25 Nov 09:46:09 09:49:32 35° 98° (E) 09:52:54 145.990 - 145.960
Oscar 11 25 Nov 09:50:21 09:53:34 21° 293° (WNW) 09:56:46 .
DELFI C3 25 Nov 09:51:31 09:55:33 87° 277° (W) 09:59:30 145.870
FO-29 25 Nov 09:57:33 10:00:42 13° 276° (W) 10:04:01 435.910
Max Valier Satellite 25 Nov 09:58:36 10:02:18 80° 103° (ESE) 10:05:58 145.860
UNISAT 6 25 Nov 10:08:16 10:11:52 23° 265° (W) 10:15:26 437.425
TIGRISAT 25 Nov 10:11:15 10:14:53 23° 265° (W) 10:18:28 435.000
DUCHIFAT 1 25 Nov 10:21:18 10:23:34 14° 65° (ENE) 10:25:50 145.980
EO-79 25 Nov 10:33:15 10:36:43 25° 69° (ENE) 10:40:11 145.935-145.965
NANOSAT C BR1 25 Nov 10:33:29 10:36:45 22° 68° (ENE) 10:40:01 145.865
BEESAT 2 25 Nov 10:36:31 10:40:02 28° 50° (NE) 10:43:29 435.950
POLYITAN 1 25 Nov 10:49:25 10:53:18 37° 72° (ENE) 10:57:13 437.675
BEESAT 3 25 Nov 10:50:51 10:54:43 57° 242° (WSW) 10:58:30 437.485
AIST 2D 25 Nov 10:52:35 10:55:59 57° 261° (W) 10:59:25 435.315
AO-85 25 Nov 10:55:28 10:59:12 23° 47° (NE) 11:03:07 145.980
FALCONSAT 3 25 Nov 11:07:02 11:10:21 31° 191° (SSW) 11:13:39 435.103
QB50P2 25 Nov 11:12:45 11:16:58 79° 78° (ENE) 11:21:13 145.880/145.840
PRISM 25 Nov 11:18:58 11:19:40 10° 270° (W) 11:20:23 437.425
EO-88 25 Nov 11:20:49 11:22:51 14° 293° (WNW) 11:24:53 145.990 - 145.960
LO-87 25 Nov 11:28:28 11:32:01 87° 101° (E) 11:35:32 145.935 - 145.965
O/OREOS (USA 219) 25 Nov 11:29:50 11:32:47 17° 100° (E) 11:35:45 437.305
Oscar 19 25 Nov 11:41:30 11:44:58 19° 63° (ENE) 11:48:25 437.125/150
ESTCUBE 1 25 Nov 11:44:36 11:49:10 83° 105° (ESE) 11:53:42 437.505/2401.250
VELOX 1 25 Nov 11:46:08 11:47:50 12° 90° (E) 11:49:33 145.980
DUCHIFAT 1 25 Nov 11:54:44 11:58:48 49° 260° (W) 12:02:53 145.980
SPROUT 25 Nov 12:04:44 12:08:31 31° 97° (E) 12:12:17 437.525
NANOSAT C BR1 25 Nov 12:08:34 12:12:17 30° 263° (W) 12:15:59 145.865
EO-79 25 Nov 12:08:48 12:12:22 26° 264° (W) 12:15:57 145.935-145.965
BEESAT 2 25 Nov 12:14:18 12:17:38 25° 247° (WSW) 12:20:56 435.950
AO-91 25 Nov 12:25:31 12:30:38 46° 72° (ENE) 12:35:42 145.960
POLYITAN 1 25 Nov 12:26:21 12:29:12 17° 267° (W) 12:32:03 437.675
BUGSAT 1 25 Nov 12:27:58 12:32:09 88° 250° (WSW) 12:36:19 437.445
AO-85 25 Nov 12:35:13 12:39:50 51° 243° (WSW) 12:44:46 145.980
Gurwin Techsat 1B 25 Nov 12:43:07 12:48:13 50° 71° (ENE) 12:53:21 435.225
FALCONSAT 3 25 Nov 12:47:05 12:48:51 13° 206° (SSW) 12:50:38 435.103
M-CUBED/EXP-1 PRIME 25 Nov 13:06:29 13:09:17 20° 61° (ENE) 13:12:15 437.505
O/OREOS (USA 219) 25 Nov 13:07:23 13:11:47 45° 296° (WNW) 13:16:13 437.305
Oscar 19 25 Nov 13:18:50 13:23:50 54° 259° (W) 13:28:52 437.125/150
VELOX 1 25 Nov 13:20:15 13:24:39 60° 287° (WNW) 13:28:59 145.980
50 SAT 25 Nov 13:23:47 13:26:40 30° 98° (E) 13:29:31 437.505
NO-84 25 Nov 13:24:08 13:27:33 59° 133° (SE) 13:31:18 435.350 FM
ESTCUBE 1 25 Nov 13:24:43 13:25:15 10° 299° (WNW) 13:25:47 437.505/2401.250
SPROUT 25 Nov 13:40:59 13:44:12 21° 293° (WNW) 13:47:24 437.525
ITAMSAT 1 25 Nov 13:44:49 13:48:00 17° 61° (ENE) 13:51:13 435.822/435.867
DX 1 25 Nov 13:50:11 13:54:32 62° 101° (E) 13:58:50 434.975-435.025
AO-7 25 Nov 13:53:03 14:00:48 47° 63° (ENE) 14:08:36 .
AO-91 25 Nov 14:02:55 14:07:10 23° 267° (W) 14:11:25 145.960
YUBILEINY 25 Nov 14:13:28 14:16:54 12° 57° (ENE) 14:20:20 435.215
UKube-1 25 Nov 14:21:50 14:26:10 87° 101° (ESE) 14:30:29 .
Gurwin Techsat 1B 25 Nov 14:24:35 14:28:25 20° 267° (W) 14:32:16 435.225
M-CUBED/EXP-1 PRIME 25 Nov 14:40:18 14:43:29 28° 260° (W) 14:46:54 437.505
50 SAT 25 Nov 14:57:05 14:58:24 12° 293° (WNW) 14:59:43 437.505
NO-84 25 Nov 15:02:15 15:05:12 22° 333° (NNW) 15:08:18 435.350 FM
MOZHAYETS 4 25 Nov 15:12:01 15:16:32 56° 100° (E) 15:21:02
ITAMSAT 1 25 Nov 15:21:43 15:26:54 65° 258° (WSW) 15:32:08 435.822/435.867
DX 1 25 Nov 15:28:16 15:30:10 13° 298° (WNW) 15:32:03 434.975-435.025
BEESAT 25 Nov 15:33:15 15:38:00 67° 102° (ESE) 15:42:43 436.000
